Temperature
22 22 22 22 21 21 21 20 20 19 19 19 19 18 18 18 18 18 18 18 18 17 17 17 17 17 17 17 17 17 17 17 17 17 17 17 17 17 17 17 17 17 17
22 22 22 21 21 21 21 20 20 19 19 19 19 18 18 18 18 18 18 18 18 18 17 17 17 17 17 17 17 17 17 17 17 17 17 17 17 17 17 17 17 17 17
23 22 22 22 21 21 21 20 20 19 19 19 19 18 18 18 18 18 18 18 18 17 17 17 17 17 17 17 17 17 17 17 17 17 17 17 17 17 17 17 17 17 17
23 23 22 22 22 21 21 20 20 19 19 19 19 18 18 18 18 18 18 18 18 17 17 17 17 17 17 17 17 17 17 17 17 17 17 17 17 17 17 17 17 17 17
23 23 23 22 22 21 21 20 20 20 19 19 19 19 19 19 18 18 18 18 18 18 17 17 17 17 17 17 17 17 17 17 17 17 17 17 17 17 16 16 17 17 17
23 23 23 22 22 21 21 20 20 20 20 19 19 19 19 19 18 18 18 18 18 17 17 17 17 17 17 17 17 17 17 17 17 17 17 17 17 17 17 16 16 16 16
24 23 23 22 22 21 21 21 20 20 20 19 19 19 19 19 18 18 18 18 18 17 17 17 17 17 17 17 17 17 17 17 17 17 17 17 17 17 16 16 16 16 16
24 24 23 23 22 22 21 21 21 20 20 19 19 19 19 18 18 18 18 18 17 17 17 17 17 17 17 17 17 17 17 17 17 17 17 17 17 16 16 16 16 16 15
24 24 24 23 23 22 22 21 21 20 20 20 19 19 19 18 18 18 18 18 17 17 17 17 17 17 17 17 17 17 17 17 17 17 17 17 16 16 16 16 16 16 15
24 24 24 23 23 22 22 21 21 20 20 20 19 19 19 18 18 18 18 17 17 17 17 17 17 17 17 17 17 16 16 16 17 16 16 16 16 16 16 16 16 15 15
25 24 24 23 23 22 22 21 21 21 20 20 19 19 19 19 18 18 18 17 17 17 17 17 17 17 17 16 16 16 16 16 16 16 16 16 16 16 16 16 16 15 15
25 25 24 23 23 22 22 21 21 21 20 20 20 19 19 19 18 18 18 17 17 17 17 17 17 16 16 16 16 16 16 16 16 16 16 16 16 16 16 16 15 15 15
25 25 24 23 23 22 22 21 21 21 20 20 20 19 19 19 18 18 17 17 17 17 17 17 17 16 16 16 16 16 16 16 16 16 16 16 15 15 15 15 15 15 15
25 25 24 23 23 22 22 21 21 21 20 20 20 19 19 19 18 18 17 17 17 17 17 16 16 16 16 16 16 16 16 16 15 15 15 15 15 15 15 15 15 14 14
25 24 24 23 23 22 22 21 21 21 20 20 20 19 19 19 18 18 17 17 17 17 16 16 16 16 16 16 15 15 15 15 15 15 15 15 15 15 14 14 14 14 14
25 25 24 24 23 23 22 22 21 21 20 20 20 19 19 19 18 18 17 17 17 17 16 16 16 16 16 15 15 15 15 15 15 15 14 14 14 14 14 14 14 14 14
24 24 24 24 24 23 23 22 21 21 20 20 19 19 19 18 18 18 17 17 17 16 16 16 16 15 15 15 15 15 15 14 14 14 14 14 14 14 14 14 13 13 13
24 24 24 24 24 23 23 22 21 21 20 20 19 19 19 18 18 17 17 17 16 16 16 16 15 15 15 15 15 14 14 14 14 14 14 13 13 13 13 13 13 13 13
24 24 24 24 23 23 22 22 21 20 20 20 19 19 18 18 18 17 17 17 16 16 16 15 15 15 14 14 14 14 14 14 14 13 13 13 13 13 13 12 12 12 12
24 24 24 24 23 23 22 21 21 20 20 20 19 19 18 18 17 17 17 16 16 16 15 15 15 14 14 14 14 14 14 13 13 13 13 12 12 12 12 12 12 12 12
23 23 23 23 22 22 21 21 21 20 20 19 19 18 18 17 17 17 16 16 16 15 15 15 14 14 14 14 13 13 13 13 13 13 12 12 12 12 12 12 11 11 11
22 22 22 22 21 21 21 20 20 20 19 19 18 18 17 17 16 16 16 16 15 15 15 14 14 14 14 13 13 13 13 13 13 12 12 12 12 11 11 11 11 10 10
21 21 21 21 20 20 20 20 20 19 19 18 18 17 17 16 16 16 15 15 15 15 14 14 14 14 13 13 13 13 12 12 12 12 11 11 11 11 11 10 10 10 10
20 20 20 20 19 19 19 19 18 18 18 18 17 17 16 16 16 15 15 15 15 14 14 14 14 13 13 13 13 12 12 12 12 11 11 11 10 10 10 10 9 9 9
20 20 19 19 19 18 18 18 18 17 17 17 17 16 16 16 15 15 15 14 14 14 14 13 13 13 13 13 12 12 11 11 11 11 10 10 10 10 10 9 9 9 8
19 18 18 18 18 18 17 17 17 17 16 16 16 16 15 15 15 14 14 14 14 13 13 13 13 12 12 12 12 11 11 11 10 10 10 10 10 9 9 9 9 8 8
Wind_Speed
6 6 7 8 8 8 8 9 9 7 7 4 4 3 3 2 2 4 6 7 7 8 7 4 4 4 3 4 3 2 2 1 2 1 1 2 1 2 2 3 3 4 6
6 7 7 8 9 9 9 9 9 9 8 5 4 3 3 2 2 2 4 6 7 8 7 5 4 4 3 3 4 3 2 2 2 2 1 1 2 1 1 2 3 3 3
9 8 8 9 9 10 10 10 10 9 8 6 4 3 2 1 1 2 2 4 6 7 6 6 5 4 4 4 4 4 4 3 2 3 3 3 3 1 1 1 2 2 2
8 8 9 9 10 9 8 8 9 9 8 8 6 6 5 4 5 3 3 3 4 5 6 6 6 5 4 4 5 5 4 4 3 2 2 2 3 2 1 1 1 1 2
9 10 10 9 8 8 8 7 8 8 7 8 8 7 5 4 2 2 2 3 2 4 5 6 5 5 4 5 5 4 5 4 4 4 3 3 2 2 2 2 1 1 1
9 8 7 7 6 7 7 7 8 7 7 8 8 7 7 6 4 3 3 3 2 2 3 5 5 5 4 5 5 5 5 5 4 4 4 4 3 4 4 4 3 2 1
8 8 8 8 8 9 9 8 8 7 7 7 7 7 7 7 6 5 4 3 2 2 4 3 3 3 4 4 4 4 4 5 5 5 4 5 4 3 4 4 3 2 1
7 9 10 9 9 9 9 9 9 8 7 8 7 6 6 5 4 4 4 4 4 3 3 3 3 3 3 3 3 3 4 4 5 5 5 4 4 4 4 4 4 2 2
8 8 8 9 9 9 9 10 9 8 8 7 7 6 5 5 4 4 3 3 3 2 2 2 2 2 2 2 2 2 3 3 3 4 4 3 3 3 4 4 5 5 4
7 8 8 8 8 8 8 8 8 8 7 7 6 5 5 5 4 3 3 3 3 2 2 2 2 2 2 2 2 2 2 2 3 3 3 3 3 3 4 4 4 4 4
9 8 7 7 7 7 7 7 7 7 6 6 6 5 4 4 4 3 3 3 2 2 2 2 2 1 1 1 2 2 2 2 2 2 3 3 3 3 3 3 3 4 4
7 7 7 7 7 8 8 8 7 7 6 6 5 5 4 4 4 3 3 3 2 2 2 2 2 2 1 1 1 1 1 1 2 1 2 2 2 2 2 2 3 3 3
7 6 7 7 8 8 8 7 7 7 6 6 6 5 5 4 4 3 3 3 3 3 3 2 2 2 1 1 1 1 1 1 1 1 1 1 1 1 1 2 2 2 3
8 7 7 6 7 7 7 7 7 7 7 7 6 6 5 5 4 4 3 3 3 3 3 3 2 2 1 1 1 1 1 1 1 0 0 0 0 1 1 1 2 3 4
7 8 8 8 7 7 7 7 7 7 8 7 6 5 5 5 5 4 4 3 3 3 3 4 3 2 2 1 1 1 1 2 2 2 2 2 2 1 1 1 2 4 4
9 9 9 9 10 10 9 8 8 8 7 7 6 6 6 5 5 5 4 4 4 3 4 4 3 3 2 2 3 3 2 3 2 2 3 3 3 4 4 3 4 4 4
9 9 10 11 11 10 10 10 8 7 8 7 6 6 6 6 5 5 5 4 4 4 4 4 3 3 2 4 4 4 3 3 2 2 2 2 4 4 4 5 6 5 4
7 8 8 8 8 8 8 8 8 8 7 7 6 6 6 6 5 5 5 4 3 3 3 3 3 3 3 4 4 5 4 4 3 3 3 3 3 3 4 5 5 5 5
5 6 7 7 7 8 9 10 9 8 8 7 7 7 7 6 6 5 5 4 4 3 3 3 3 3 2 3 4 4 3 3 3 3 3 3 3 4 4 5 5 5 5
1 4 6 7 9 9 10 11 10 9 8 8 7 7 7 7 6 6 5 3 4 4 4 3 3 2 2 2 4 4 3 3 2 3 3 4 4 4 5 4 5 5 3
2 4 7 7 7 9 11 10 9 8 7 6 6 6 6 6 6 5 4 4 4 4 4 3 2 2 2 2 3 4 3 3 2 2 2 2 4 5 5 4 4 4 4
4 5 6 6 6 9 10 10 8 6 6 7 7 7 6 5 5 5 4 4 5 5 4 3 2 1 1 2 3 4 4 4 3 2 1 2 4 6 6 5 6 7 6
4 5 6 6 5 6 8 8 6 7 8 7 6 6 6 5 5 5 5 4 4 4 3 3 2 1 1 1 2 3 5 5 3 2 4 5 6 6 5 6 6 5 4
3 4 6 6 4 4 5 5 7 8 8 8 7 6 6 5 5 4 4 4 4 3 3 3 3 2 1 1 1 2 3 4 4 3 4 6 7 5 5 4 4 3 3
3 4 4 4 4 3 4 5 6 7 8 7 6 6 6 6 5 4 2 3 2 3 4 4 3 3 2 2 4 3 3 3 4 4 3 3 3 3 3 2 2 2 2
2 4 4 4 4 4 3 4 5 6 7 6 5 5 4 4 4 4 3 5 3 4 3 3 3 2 2 4 5 5 5 6 8 5 3 3 3 2 2 2 2 1 2
Wind_Direction
202 190 182 174 170 171 172 175 173 171 165 162 160 167 189 193 195 207 210 203 201 198 195 202 193 185 192 201 192 175 177 191 154 122 352 332 306 256 244 230 223 224 227
187 189 179 175 176 181 181 180 180 178 183 178 163 164 165 188 197 205 204 207 202 201 203 197 197 195 196 194 191 180 171 186 171 158 135 328 335 337 271 227 225 232 232
195 190 183 184 182 187 187 189 185 182 185 170 143 123 107 100 173 210 213 211 205 206 207 201 198 199 196 206 207 191 184 196 201 186 165 176 231 289 337 285 236 231 229
192 188 188 190 190 191 182 183 181 180 181 172 172 169 177 191 204 200 207 212 210 211 208 203 201 198 199 208 215 202 197 188 204 204 209 201 176 181 276 334 313 260 247
189 190 191 192 186 177 176 178 173 178 179 178 182 182 187 192 187 185 204 218 220 218 211 203 200 202 208 213 214 202 202 201 201 198 189 200 208 203 202 252 292 344 296
183 187 185 172 169 166 169 170 172 180 179 181 186 189 190 185 180 193 206 216 219 233 226 213 204 206 209 213 215 210 206 210 211 209 200 189 190 197 197 221 237 253 284
178 179 178 177 176 174 175 174 176 183 181 183 191 193 194 189 193 200 205 206 215 234 235 224 212 211 211 211 210 208 214 212 214 217 221 216 216 192 183 196 214 228 244
178 183 186 185 183 178 174 175 180 184 181 187 194 190 189 191 200 201 200 207 218 227 226 210 206 203 203 213 208 213 221 215 217 224 220 221 222 206 195 190 186 208 229
184 186 183 181 181 180 181 181 179 180 183 188 186 184 186 192 199 199 201 210 212 209 204 198 200 202 197 194 201 219 229 220 221 224 221 225 232 219 215 203 193 192 216
184 184 182 182 183 184 180 174 176 180 181 181 184 187 188 191 194 186 193 200 200 189 184 197 197 203 195 186 199 222 230 214 227 222 216 229 235 218 212 212 210 203 200
191 190 187 181 176 168 165 170 173 172 173 177 179 181 182 177 175 180 192 192 184 176 179 188 181 180 194 189 189 223 223 218 227 219 211 232 226 217 217 213 206 201 189
189 184 178 169 169 169 170 174 175 177 177 174 170 172 167 158 159 169 173 165 159 151 152 145 143 142 140 164 187 230 230 206 219 223 212 235 219 214 219 209 203 196 186
180 175 171 172 174 174 174 176 176 178 171 165 163 161 159 157 160 164 155 151 144 132 126 125 128 126 121 129 184 185 188 188 209 206 206 233 208 219 215 198 189 176 165
180 176 175 177 176 174 174 174 176 172 166 163 162 164 165 163 159 153 149 150 146 141 133 126 121 117 112 102 84 103 111 92 56 52 96 88 161 208 202 186 177 161 153
186 182 181 181 175 173 175 174 174 171 166 161 164 169 161 150 143 141 138 134 136 140 134 120 105 90 96 78 73 86 99 86 62 46 42 47 67 84 121 144 161 158 157
199 188 183 183 180 179 181 178 177 173 164 162 163 157 149 144 143 139 131 125 121 122 122 115 109 93 75 67 87 96 96 91 84 63 41 41 50 63 80 93 109 138 156
201 192 192 191 187 183 178 177 178 166 160 159 156 154 149 149 149 142 132 130 128 121 115 114 117 107 72 75 85 90 94 89 76 67 54 54 50 56 70 73 76 77 88
200 195 191 190 183 171 165 159 155 153 154 154 157 155 152 151 145 138 138 132 122 120 119 117 115 105 83 88 95 94 93 84 66 57 53 65 52 56 82 86 77 65 54
200 189 179 173 163 162 157 149 148 150 157 163 168 164 161 158 153 152 149 140 133 127 121 119 119 112 85 90 104 101 100 89 65 55 54 68 68 57 85 101 97 80 58
157 155 147 144 153 156 150 150 156 163 173 172 172 164 164 164 163 162 153 142 140 142 137 125 122 122 106 99 111 114 116 106 83 59 49 57 71 74 86 107 112 104 85
90 123 129 140 152 150 150 154 159 175 176 160 155 155 160 162 158 155 150 144 141 138 136 131 117 105 103 99 111 120 131 137 120 95 65 56 75 84 82 86 99 116 114
70 103 118 126 138 149 153 158 170 170 151 150 152 155 155 156 154 151 148 147 150 150 150 142 124 90 78 87 108 124 129 133 130 125 110 93 91 89 87 88 97 101 101
80 99 114 118 121 140 151 160 162 146 143 141 148 152 147 148 149 151 152 151 154 158 161 157 158 151 100 83 97 130 131 126 121 122 121 114 104 93 88 93 101 104 107
78 95 109 119 123 134 140 142 139 142 144 148 154 156 154 153 147 146 153 159 167 171 170 174 180 176 155 138 120 130 130 124 118 111 102 97 93 88 85 89 94 95 108
81 97 114 125 127 126 125 133 144 148 150 152 156 161 158 153 148 140 136 157 160 186 182 188 180 176 195 203 170 158 160 158 143 125 106 99 99 97 94 92 91 97 106
87 99 103 114 117 117 119 124 140 148 153 155 160 162 161 158 157 152 117 69 91 105 114 131 157 176 171 155 157 159 154 145 139 127 132 141 144 149 150 143 132 127 132
Height
1524 1526 1528 1530 1532 1535 1537 1540 1542 1545 1547 1549 1550 1552 1553 1555 1557 1558 1560 1561 1562 1564 1565 1566 1567 1568 1569 1570 1571 1572 1572 1573 1574 1574 1574 1574 1574 1574 1575 1575 1575 1575 1576
1522 1524 1527 1528 1530 1532 1535 1538 1540 1542 1544 1547 1549 1551 1552 1554 1556 1557 1559 1560 1561 1562 1564 1565 1566 1567 1568 1568 1569 1570 1571 1571 1572 1573 1573 1573 1573 1572 1572 1572 1573 1573 1573
1520 1522 1524 1526 1528 1531 1533 1536 1538 1541 1543 1546 1547 1549 1551 1553 1554 1556 1557 1559 1560 1561 1562 1563 1564 1565 1566 1566 1567 1568 1568 1569 1570 1571 1572 1571 1570 1570 1570 1570 1570 1570 1571
1518 1520 1522 1524 1526 1529 1532 1534 1537 1539 1542 1544 1546 1547 1549 1550 1552 1554 1555 1557 1558 1559 1560 1561 1562 1563 1564 1564 1565 1566 1566 1567 1567 1568 1568 1569 1569 1569 1568 1568 1568 1568 1568
1515 1517 1520 1522 1525 1528 1531 1533 1535 1538 1540 1542 1544 1546 1547 1549 1550 1552 1553 1555 1556 1557 1558 1559 1560 1561 1561 1562 1562 1563 1564 1564 1564 1565 1565 1566 1566 1566 1566 1565 1566 1566 1566
1512 1515 1518 1521 1524 1527 1529 1531 1534 1536 1539 1540 1542 1544 1545 1547 1548 1550 1551 1552 1554 1555 1556 1556 1557 1558 1558 1559 1560 1560 1560 1561 1561 1562 1562 1562 1563 1563 1563 1563 1562 1562 1563
1510 1513 1516 1518 1521 1524 1527 1530 1532 1534 1536 1539 1540 1542 1544 1545 1546 1548 1549 1550 1551 1552 1553 1553 1554 1555 1555 1556 1556 1557 1557 1557 1558 1558 1558 1559 1559 1560 1560 1560 1559 1559 1560
1508 1511 1514 1517 1520 1522 1525 1528 1530 1532 1535 1537 1539 1540 1542 1543 1544 1546 1547 1548 1549 1549 1550 1551 1551 1552 1552 1552 1553 1553 1554 1554 1554 1554 1555 1555 1555 1556 1556 1556 1556 1556 1556
1507 1510 1512 1515 1518 1521 1524 1526 1529 1531 1533 1535 1537 1538 1540 1541 1542 1543 1544 1545 1546 1547 1548 1548 1548 1549 1549 1550 1550 1550 1550 1550 1550 1551 1551 1551 1551 1552 1552 1552 1552 1553 1552
1506 1509 1511 1514 1517 1520 1523 1525 1527 1529 1531 1533 1535 1537 1538 1539 1540 1541 1542 1543 1544 1544 1545 1546 1546 1546 1547 1547 1547 1547 1547 1547 1547 1547 1547 1547 1548 1548 1548 1548 1548 1548 1549
1504 1507 1510 1513 1516 1519 1521 1524 1526 1528 1530 1532 1534 1535 1536 1537 1538 1539 1540 1541 1542 1542 1543 1543 1543 1544 1544 1544 1545 1545 1545 1545 1544 1544 1543 1544 1544 1544 1544 1544 1544 1544 1545
1503 1506 1509 1512 1514 1517 1520 1522 1525 1527 1529 1531 1532 1533 1534 1535 1536 1537 1538 1539 1539 1540 1541 1541 1541 1542 1542 1542 1543 1542 1542 1542 1541 1541 1541 1541 1541 1541 1541 1540 1540 1541 1541
1501 1505 1508 1510 1513 1516 1519 1521 1523 1525 1527 1529 1530 1532 1533 1534 1535 1536 1536 1537 1538 1538 1539 1539 1540 1540 1540 1540 1540 1540 1540 1540 1539 1539 1538 1538 1538 1538 1537 1537 1537 1537 1538
1500 1503 1506 1509 1512 1515 1518 1520 1522 1524 1526 1527 1529 1530 1531 1532 1533 1533 1534 1535 1536 1536 1537 1537 1538 1538 1538 1538 1538 1538 1538 1538 1537 1537 1537 1536 1536 1535 1535 1535 1535 1535 1535
1498 1501 1504 1507 1510 1513 1516 1519 1521 1523 1524 1526 1527 1529 1530 1531 1531 1532 1533 1533 1534 1535 1535 1536 1536 1536 1537 1537 1537 1536 1536 1536 1536 1535 1535 1534 1534 1534 1533 1533 1533 1533 1533
1495 1498 1502 1505 1507 1511 1514 1516 1519 1521 1523 1524 1526 1528 1528 1529 1530 1531 1531 1532 1533 1533 1534 1534 1535 1535 1535 1535 1535 1535 1535 1534 1534 1534 1534 1533 1533 1532 1532 1531 1531 1531 1531
1492 1496 1499 1502 1505 1508 1511 1514 1517 1519 1521 1523 1525 1526 1527 1528 1529 1529 1530 1531 1532 1532 1532 1533 1533 1533 1534 1534 1534 1534 1533 1533 1533 1533 1532 1532 1531 1531 1531 1530 1529 1529 1529
1490 1493 1496 1500 1503 1506 1510 1512 1515 1518 1519 1521 1523 1524 1526 1527 1528 1528 1529 1530 1531 1531 1531 1532 1532 1532 1533 1533 1533 1532 1532 1532 1532 1532 1531 1531 1530 1530 1530 1529 1529 1528 1528
1488 1490 1493 1497 1501 1504 1507 1510 1513 1516 1517 1519 1521 1522 1524 1526 1527 1527 1528 1529 1529 1530 1530 1530 1531 1531 1531 1532 1531 1531 1531 1531 1531 1530 1530 1530 1530 1529 1529 1529 1528 1528 1528
1487 1488 1491 1494 1498 1501 1505 1508 1510 1513 1514 1517 1519 1520 1522 1524 1525 1526 1527 1527 1528 1528 1529 1529 1529 1530 1530 1530 1530 1530 1530 1530 1530 1529 1529 1529 1529 1528 1528 1528 1528 1527 1528
1485 1487 1489 1492 1495 1499 1502 1505 1508 1510 1513 1515 1517 1519 1521 1522 1523 1524 1525 1526 1526 1526 1527 1527 1527 1528 1528 1529 1529 1529 1529 1529 1528 1528 1528 1528 1528 1528 1528 1528 1527 1527 1528
1484 1486 1488 1490 1493 1496 1499 1502 1505 1508 1510 1512 1514 1516 1518 1520 1521 1522 1523 1524 1524 1524 1525 1525 1526 1526 1527 1527 1527 1527 1527 1527 1527 1527 1527 1527 1527 1527 1527 1527 1527 1527 1527
1484 1486 1488 1490 1492 1495 1498 1500 1502 1506 1507 1509 1512 1514 1516 1517 1518 1519 1521 1521 1522 1522 1523 1523 1523 1524 1525 1525 1525 1526 1526 1526 1526 1526 1526 1526 1526 1526 1526 1526 1526 1527 1527
1485 1486 1488 1490 1492 1494 1496 1499 1500 1502 1505 1507 1509 1511 1513 1514 1515 1516 1518 1519 1520 1520 1520 1521 1521 1522 1523 1523 1524 1524 1524 1524 1524 1524 1524 1525 1525 1525 1525 1525 1526 1526 1526
1485 1486 1489 1490 1491 1493 1495 1496 1499 1501 1502 1504 1506 1508 1509 1511 1513 1514 1515 1516 1517 1519 1519 1519 1520 1520 1520 1521 1521 1522 1522 1522 1522 1523 1523 1523 1523 1524 1524 1524 1525 1525 1526
1485 1486 1488 1490 1491 1492 1493 1494 1495 1498 1501 1502 1503 1505 1507 1509 1510 1511 1512 1513 1515 1516 1516 1517 1517 1517 1518 1519 1519 1520 1520 1520 1521 1521 1521 1522 1522 1522 1523 1523 1523 1524 1524